www.pogodaiklimat.ru

Погода и климат >> Архив погоды >> Сербия >> Сомбор


ПОГОДА в Сомборе

  • Прогноз погоды в Сомборе
  • Монитор погоды в Сомборе

АРХИВ ПОГОДЫ в Сомборе

Время (UTC), дата Ветер
(напр.,м/с)
 
Видим.   Явления Облачность Т
(С)
Тd
(С)
f
(%)
Тe
(С)
Тes
(С)
Комфортность P
(гПа)
Po
(гПа)
Тmin
(С)
Tmax
(С)
R
(мм)
R24
(мм)
S
(см)
01 16.08 штиль 0 10 км ясно +11.3 +10.7 96 +11 +11 1016.5 1005.8
02 16.08 штиль 0 10 км ясно +11.5 +10.9 96 +11 +11 1016.6 1005.9
03 16.08 З 1 10 км ясно +11.0 +10.6 97 +11 +11 1016.7 1005.9
04 16.08 ЮВ 1 10 км ясно +10.5 +10.1 97 +10 +10 1016.7 1005.9
05 16.08 штиль 0 10 км ясно +12.0 +11.4 96 +11 +13 1016.8 1006.1
06 16.08 З 1 10 км 1/0
[Ci fib]
+16.6 +16.1 97 +17 +21 1016.8 1006.3 +10.5
07 16.08 З 2 10 км 3/0
[Ac trans]
+21.7 +8.1 42 +23 +28 комфорт 1016.5 1006.2
08 16.08 З 3 10 км 5/0
[Ac trans]
+23.6 +8.2 37 +24 +30 комфорт 1017.0 1006.7
09 16.08 СЗ 2 10 км 5/0
[Ac trans]
+24.3 +7.8 35 +25 +34 комфорт 1016.8 1006.5
10 16.08 СЗ 3 10 км 9/3 1000 м
[Cu hum Ac As]
+23.8 +8.0 36 +24 +28 комфорт 1016.8 1006.5
11 16.08 З 3 10 км 5/1 1000 м
[Cu hum Ac trans]
+25.1 +8.3 34 +25 +34 комфорт 1016.5 1006.2
12 16.08 СЗ 2 10 км 9/9 1000 м
[Cu Sc]
+23.8 +8.7 38 +24 +26 комфорт 1016.2 1005.9
13 16.08 З 5 10 км 9/9 1000 м
[Cu Sc]
+21.8 +10.6 49 +24 +24 комфорт 1016.4 1006.1
14 16.08 ЮЗ 1 10 км слаб. дождь 10/10 1000 м
[Cu Sc]
+19.0 +17.3 90 +22 +22 комфорт 1016.7 1006.3
15 16.08 З 2 10 км в посл. час дождь 10/10 1000 м
[Cu Sc]
+18.3 +16.7 90 +19 +19 1016.7 1006.2
16 16.08 З 3 10 км слаб. дождь 10/10 1000 м
[Sc]
+18.0 +16.4 90 +18 +18 1016.4 1005.9
17 16.08 З 1 10 км в посл. час дождь 8/4 1000 м
[Sc Ac trans Cs]
+18.5 +16.9 90 +20 +20 1016.4 1005.9
18 16.08 З 2 10 км {дождь} 9/0
[Ac trans Cs]
+18.3 +16.7 90 +19 +19 1016.4 1005.9 +26.3 2
19 16.08 З 1 10 км 8/0
[Ac As]
+17.6 +16.6 94 +19 +19 1017.1 1006.6
20 16.08 З 2 10 км 8/0
[Ac trans]
+17.5 +16.7 95 +18 +18 1017.2 1006.7
21 16.08 З 2 10 км 1/0
[Ac trans]
+17.0 +16.2 95 +17 +17 1017.5 1007.0
22 16.08 З 2 10 км ясно +16.7 +16.0 96 +17 +17 1017.4 1006.9
23 16.08 З 2 10 км ясно +16.3 +15.6 96 +16 +16 1017.2 1006.6
00 17.08 З 2 10 км ясно +16.0 +15.3 96 +16 +16 1017.1 1006.5
01 17.08 З 1 10 км ясно +14.4 +13.7 96 +15 +15 1016.9 1006.3
02 17.08 З 1 10 км ясно +13.1 +12.6 97 +13 +13 1017.0 1006.3
03 17.08 З 1 10 км ясно +12.5 +12.0 97 +12 +12 1017.2 1006.5
04 17.08 штиль 0 10 км ясно +11.7 +11.1 96 +11 +11 1017.6 1006.9
05 17.08 штиль 0 10 км ясно +13.6 +13.2 97 +13 +14 1017.3 1006.7
06 17.08 З 1 10 км ясно +17.8 +17.0 95 +19 +23 1017.6 1007.1 +11.7
07 17.08 СЗ 1 10 км ясно +20.2 +14.6 70 +24 +31 комфорт 1017.8 1007.4
08 17.08 З 1 10 км ясно +22.2 +13.5 58 +25 +37 комфорт 1018.1 1007.7
09 17.08 ЮЗ 2 10 км 3/0
[Ci fib]
+23.7 +11.2 45 +25 +37 комфорт 1018.0 1007.7
10 17.08 З 2 10 км 5/1 1000 м
[Cu hum Ci fib]
+25.0 +8.8 36 +26 +38 жарко 1017.6 1007.3
11 17.08 З 2 10 км 6/1 1000 м
[Cu hum Cs]
+25.6 +7.6 32 +26 +38 жарко 1017.4 1007.1
12 17.08 З 2 10 км 5/1 1000 м
[Cu hum Ci fib]
+26.4 +6.8 29 +26 +38 жарко 1016.9 1006.6
13 17.08 Ю 2 10 км 6/1 1000 м
[Cu hum Ac trans Cc]
+26.4 +6.8 29 +26 +33 жарко 1016.3 1006.1
14 17.08 ЮЗ 3 10 км 4/1 1000 м
[Cu hum Cc]
+27.0 +6.4 27 +26 +32 жарко 1016.3 1006.1
15 17.08 З 3 10 км 3/1 1000 м
[Cu hum Ci fib]
+27.4 +5.2 24 +26 +30 жарко 1016.1 1005.9
16 17.08 З 2 10 км 3/0
[Ci fib]
+27.1 +4.4 23 +26 +28 жарко 1016.1 1005.9
17 17.08 ЮЗ 1 10 км 1/0
[Ci fib]
+25.5 +5.3 27 +25 +25 комфорт 1016.0 1005.8
18 17.08 штиль 0 10 км 3/0
[Ci fib]
+20.5 +12.6 60 +22 +22 комфорт 1015.9 1005.5 +27.4
19 17.08 штиль 0 10 км 1/0
[Ci fib]
+18.0 +15.6 86 +18 +18 1016.4 1005.9
20 17.08 ЮВ 1 10 км 4/0
[Ci fib]
+16.3 +15.0 92 +17 +17 1016.4 1005.8
21 17.08 Ю 1 10 км 3/0
[Ci fib]
+15.4 +14.6 95 +16 +16 1016.5 1005.9
22 17.08 штиль 0 10 км ясно +14.7 +14.2 97 +14 +14 1016.5 1005.9
23 17.08 ЮВ 2 10 км ясно +14.8 +14.3 97 +14 +14 1016.5 1005.9
00 18.08 ЮВ 1 10 км ясно +13.8 +13.4 97 +14 +14 1016.5 1005.9
01 18.08 Ю 1 10 км ясно +13.0 +12.6 97 +13 +13 1016.4 1005.7
02 18.08 Ю 1 10 км ясно +12.8 +12.4 97 +13 +13 1016.1 1005.4
03 18.08 ЮВ 1 10 км 3/0
[Ci fib]
+12.6 +12.2 97 +12 +12 1016.2 1005.5
04 18.08 В 1 10 км 3/0
[Ci fib]
+11.7 +11.3 97 +11 +11 1016.4 1005.7
05 18.08 ЮВ 1 10 км 8/0
[Ac As]
+14.3 +13.9 97 +15 +15 1016.3 1005.7
06 18.08 штиль 0 10 км 6/4 1000 м
[Sc Ac trans]
+16.8 +16.3 97 +17 +19 1016.6 1006.1 +11.7
07 18.08 ЮВ 1 10 км 5/0
[Ac trans]
+20.6 +17.2 81 +25 +30 комфорт 1017.1 1006.7
08 18.08 ЮВ 3 10 км 1/0
[Ci fib]
+24.0 +14.2 54 +26 +34 жарко 1016.9 1006.6
09 18.08 Ю 3 10 км ясно +26.4 +10.8 38 +27 +38 жарко 1016.5 1006.3
10 18.08 ЮВ 2 10 км ясно +28.0 +9.3 31 +28 +43 жарко 1016.4 1006.3
11 18.08 Ю 2 10 км ясно +28.3 +8.1 28 +28 +43 жарко 1016.4 1006.3
12 18.08 Ю 2 10 км ясно +29.4 +8.1 26 +29 +43 жарко 1015.9 1005.8
13 18.08 Ю 2 10 км ясно +29.8 +7.2 24 +29 +40 жарко 1016.0 1005.9
14 18.08 ЮЗ 2 10 км ясно +30.6 +6.6 22 +29 +37 жарко 1015.6 1005.5
15 18.08 ЮЗ 2 10 км ясно +30.8 +6.2 21 +29 +34 жарко 1015.5 1005.4
16 18.08 ЮЗ 2 10 км ясно +30.8 +5.6 20 +29 +31 жарко 1015.4 1005.3
17 18.08 Ю 1 10 км ясно +28.5 +5.4 23 +27 +28 жарко 1015.5 1005.3
18 18.08 ЮВ 1 10 км ясно +22.6 +11.8 50 +25 +25 комфорт 1015.6 1005.3 +30.9
19 18.08 ЮВ 1 10 км ясно +21.4 +14.2 64 +24 +24 комфорт 1015.7 1005.3
20 18.08 ЮВ 2 10 км ясно +19.5 +15.0 75 +22 +22 комфорт 1015.5 1005.1
21 18.08 Ю 2 10 км ясно +18.0 +15.1 83 +19 +19 1015.6 1005.1
22 18.08 ЮВ 1 10 км ясно +16.6 +15.0 90 +17 +17 1015.6 1005.1
23 18.08 ЮВ 1 10 км ясно +16.0 +15.0 94 +17 +17 1015.6 1005.1
00 19.08 ЮВ 1 10 км ясно +15.0 +14.3 96 +15 +15 1015.9 1005.3
01 19.08 В 1 10 км ясно +14.5 +14.0 97 +15 +15 1016.1 1005.5
02 19.08 В 1 10 км ясно +14.0 +13.5 97 +14 +14 1016.1 1005.5
03 19.08 В 1 10 км ясно +13.6 +13.1 97 +14 +14 1016.1 1005.5
04 19.08 штиль 0 10 км ясно +13.5 +13.0 97 +13 +13 1016.4 1005.8
05 19.08 ЮВ 2 10 км 3/0
[Ci fib]
+15.8 +15.3 97 +16 +16 1016.4 1005.8
06 19.08 ЮВ 1 10 км 3/0
[Ci fib]
+19.3 +17.6 90 +22 +26 комфорт 1016.8 1006.3 +13.5
07 19.08 ЮВ 1 10 км 3/0
[Ci]
+24.1 +13.3 51 +26 +33 жарко 1016.2 1005.9
08 19.08 Ю 1 10 км ясно +26.4 +10.8 38 +27 +39 жарко 1016.3 1006.1
09 19.08 ЮЗ 2 10 км ясно +28.6 +9.0 29 +28 +41 жарко 1016.4 1006.3
10 19.08 ЮЗ 2 10 км ясно +29.9 +9.1 27 +29 +44 жарко 1016.3 1006.2
11 19.08 Ю 2 10 км ясно +31.2 +9.0 25 +30 +46 жарко 1016.2 1006.2
12 19.08 ЮВ 2 10 км ясно +32.0 +9.1 24 +31 +45 жарко 1015.9 1005.9
13 19.08 Ю 2 10 км ясно +33.2 +8.2 21 +32 +43 жарко 1015.9 1005.9
14 19.08 Ю 2 10 км ясно +33.7 +7.8 20 +32 +40 жарко 1015.6 1005.7
15 19.08 Ю 2 10 км ясно +33.4 +7.5 20 +32 +36 жарко 1015.5 1005.5
16 19.08 ЮВ 1 10 км ясно +33.0 +8.7 22 +32 +34 жарко 1015.3 1005.3
17 19.08 ЮВ 1 10 км ясно +30.2 +12.1 33 +31 +31 жарко 1015.2 1005.1
18 19.08 ЮВ 1 10 км 1/0
[Ci fib]
+25.6 +13.9 48 +28 +28 жарко 1015.5 1005.3 +33.9
19 19.08 штиль 0 10 км ясно +22.7 +16.2 67 +27 +27 душно 1016.0 1005.7
20 19.08 штиль 0 10 км ясно +20.6 +17.0 80 +24 +24 комфорт 1016.4 1006.1
21 19.08 СЗ 1 10 км ясно +19.6 +17.3 87 +23 +23 комфорт 1016.8 1006.5
22 19.08 С 1 10 км ясно +18.4 +16.3 88 +20 +20 1017.1 1006.6
23 19.08 СЗ 1 10 км ясно +17.9 +16.1 89 +19 +19 1017.2 1006.7
00 20.08 штиль 0 10 км ясно +17.4 +15.6 89 +17 +17 1017.0 1006.5
01 20.08 С 1 10 км ясно +16.7 +15.4 92 +18 +18 1017.1 1006.6
03 20.08 С 1 10 км ясно +15.9 +14.9 94 +17 +17 1017.6 1007.0
04 20.08 С 1 10 км ясно +16.1 +14.9 93 +17 +17 1017.9 1007.3
05 20.08 СЗ 1 10 км ясно +17.6 +15.5 87 +19 +20 1018.0 1007.5
06 20.08 СВ 1 10 км ясно +22.9 +15.6 63 +27 +31 душно 1018.0 1007.7 +15.8
07 20.08 В 2 10 км ясно +27.4 +12.4 39 +29 +35 жарко 1017.9 1007.7
08 20.08 В 1 10 км ясно +29.8 +10.6 30 +30 +41 жарко 1018.2 1008.1
09 20.08 ЮВ 1 10 км ясно +31.6 +10.6 27 +31 +46 жарко 1018.1 1008.1
10 20.08 ЮВ 2 10 км ясно +32.3 +9.3 24 +31 +46 жарко 1018.1 1008.1
11 20.08 ЮВ 1 10 км ясно +33.3 +8.4 22 +32 +50 жарко 1017.9 1007.9
12 20.08 ЮВ 2 10 км ясно +34.0 +8.3 21 +33 +46 жарко 1017.7 1007.7
13 20.08 ЮВ 3 10 км 1/1 1000 м
[Cu hum]
+34.6 +7.8 19 +33 +41 жарко 1017.7 1007.7
14 20.08 Ю 1 10 км 1/1 1000 м
[Cu hum]
+35.0 +7.9 19 +33 +41 жарко 1017.5 1007.5
15 20.08 ЮВ 1 10 км ясно +34.1 +7.1 19 +32 +37 жарко 1017.4 1007.4
16 20.08 Ю 1 10 км ясно +34.2 +7.9 20 +33 +34 жарко 1017.1 1007.1
17 20.08 Ю 1 10 км ясно +31.8 +10.9 28 +32 +32 жарко 1017.1 1007.1
18 20.08 штиль 0 10 км ясно +26.7 +14.5 47 +29 +29 жарко 1017.3 1007.1 +35.0
19 20.08 В 1 10 км ясно +24.6 +16.3 60 +28 +28 душно 1017.7 1007.4
20 20.08 В 1 10 км ясно +22.2 +17.5 75 +27 +27 душно 1018.1 1007.7
21 20.08 ЮВ 1 10 км ясно +20.7 +17.0 79 +25 +25 комфорт 1017.9 1007.5
22 20.08 Ю 1 10 км ясно +19.5 +17.3 87 +23 +23 комфорт 1017.7 1007.3
23 20.08 ЮВ 1 10 км ясно +19.0 +17.3 90 +22 +22 комфорт 1017.8 1007.3
00 21.08 В 2 10 км ясно +19.5 +17.0 85 +22 +22 комфорт 1017.7 1007.3
01 21.08 ЮВ 1 10 км ясно +18.8 +16.8 88 +21 +21 комфорт 1017.5 1007.0
02 21.08 В 1 10 км ясно +17.3 +16.3 94 +18 +18 1017.5 1007.0
03 21.08 В 1 10 км ясно +17.3 +16.5 95 +18 +18 1017.5 1007.0
04 21.08 ЮВ 1 10 км ясно +16.7 +15.9 95 +18 +18 1018.0 1007.5
05 21.08 С 1 10 км ясно +17.9 +17.1 95 +19 +20 1018.6 1008.1
06 21.08 С 1 10 км ясно +21.9 +15.6 67 +26 +29 душно 1018.9 1008.5 +16.7
07 21.08 С 4 10 км ясно +25.1 +13.8 49 +27 +31 жарко 1019.8 1009.5
08 21.08 С 5 10 км ясно +27.7 +13.7 42 +30 +35 жарко 1020.1 1009.9
09 21.08 С 5 10 км ясно +29.6 +15.7 43 +32 +39 душно 1020.2 1010.1
10 21.08 С 4 10 км ясно +30.4 +15.7 41 +33 +43 душно 1020.2 1010.1
11 21.08 С 4 10 км ясно +31.2 +15.4 38 +34 +44 душно 1020.0 1009.9
12 21.08 С 4 10 км ясно +32.2 +14.5 34 +34 +43 душно 1019.7 1009.7
13 21.08 С 4 10 км ясно +32.8 +13.5 31 +34 +41 очень
жарко
1019.3 1009.3
14 21.08 СЗ 5 10 км ясно +32.5 +12.9 30 +33 +37 жарко 1019.3 1009.3
15 21.08 СЗ 5
{10}
10 км ясно +30.8 +12.8 33 +32 +34 жарко 1019.4 1009.3
16 21.08 СЗ 5-11
{11}
10 км ясно +29.5 +12.0 34 +30 +31 жарко 1019.5 1009.4
17 21.08 СЗ 4 10 км ясно +27.7 +11.4 36 +29 +29 жарко 1019.7 1009.5
18 21.08 СЗ 4
{11}
10 км ясно +25.3 +11.5 42 +27 +27 жарко 1020.2 1009.9 +33.0
19 21.08 СЗ 5 10 км ясно +23.2 +11.6 48 +26 +26 жарко 1021.5 1011.1
20 21.08 СЗ 4
{11}
10 км ясно +21.7 +11.7 53 +24 +24 комфорт 1022.2 1011.8
21 21.08 СЗ 2 10 км ясно +20.0 +12.2 61 +22 +22 комфорт 1022.6 1012.1
22 21.08 СЗ 3 10 км ясно +19.2 +12.7 66 +21 +21 комфорт 1022.8 1012.3
23 21.08 СЗ 3 10 км ясно +18.9 +12.8 68 +20 +20 1023.0 1012.5
00 22.08 З 4 10 км ясно +18.5 +12.7 69 +19 +19 1023.1 1012.5
01 22.08 З 3 10 км ясно +18.1 +12.8 71 +18 +18 1023.1 1012.5
02 22.08 З 4 10 км ясно +17.9 +11.6 67 +18 +18 1023.1 1012.5
03 22.08 штиль 0 10 км ясно +18.9 +11.6 63 +20 +20 1023.1 1012.5
04 22.08 СЗ 2 10 км 1/0
[Ac trans]
+16.6 +14.5 87 +17 +17 1023.5 1012.9
05 22.08 С 2 10 км 1/0
[Ac trans]
+17.1 +15.5 90 +17 +18 1023.5 1012.9
06 22.08 С 3 10 км ясно +19.0 +17.1 89 +21 +23 комфорт 1023.8 1013.3 +16.6
07 22.08 СЗ 2 10 км ясно +20.9 +15.2 70 +25 +31 комфорт 1023.5 1013.0
08 22.08 СЗ 2 10 км ясно +22.2 +14.0 60 +25 +35 комфорт 1023.7 1013.3
09 22.08 С 2 10 км ясно +23.7 +14.2 55 +26 +39 жарко 1023.2 1012.9
10 22.08 СЗ 2 10 км ясно +25.7 +14.0 48 +28 +42 жарко 1023.0 1012.7
11 22.08 С 2 10 км ясно +27.3 +14.1 44 +29 +44 жарко 1022.3 1012.1
12 22.08 С 2 10 км ясно +28.7 +14.2 41 +31 +44 жарко 1021.6 1011.5
13 22.08 СЗ 2 10 км ясно +29.5 +13.5 37 +31 +42 жарко 1021.1 1011.0
14 22.08 С 2 10 км 1/0
[Ci fib]
+30.4 +13.7 36 +32 +39 жарко 1021.0 1010.9
15 22.08 С 2 10 км 3/0
[Ci fib]
+31.0 +13.7 35 +32 +36 жарко 1020.6 1010.5
17 22.08 С 2 10 км 1/0
[Ci fib]
+29.4 +12.9 36 +31 +31 жарко 1020.3 1010.2
18 22.08 СВ 2 10 км 1/0
[Ci fib]
+26.1 +15.4 52 +29 +29 жарко 1020.7 1010.5 +31.0
19 22.08 С 1 10 км ясно +23.9 +16.0 61 +27 +27 жарко 1021.2 1010.9
20 22.08 С 1 10 км ясно +22.9 +17.1 70 +28 +28 душно 1021.4 1011.1
21 22.08 С 2 10 км ясно +22.2 +17.3 74 +27 +27 душно 1021.5 1011.1
22 22.08 С 1 10 км ясно +20.9 +17.0 78 +26 +26 душно 1021.5 1011.1
23 22.08 С 1 10 км ясно +20.4 +17.0 81 +25 +25 комфорт 1021.4 1010.9
00 23.08 С 1 10 км ясно +20.5 +16.9 80 +25 +25 комфорт 1021.4 1010.9

 

Местоположение метеостанции Сомбор (Сербия): широта 45.77 долгота 19.15 высота над уровнем моря 89 м.

В архиве по умолчанию представлена погода в Сомборе за последнюю неделю. Архивные данные за месяц целиком и за предыдущие месяцы, начиная с января 2011 года, Вы можете получить, выбрав интересующий диапазон дат из раскрывающегося списка и нажав кнопку "Ввод!".


*Определитесь, кто Вы:
робот инопланетянин человек

Внимание! Время в таблицах - всемирное. Для получения местного времени необходимо прибавить поправку, которая равна 1 ч.

Смотрите также архив погоды в соседних городах и на ближайших метеорологических станциях:

Погода в Осиек аэропорту (Хорватия) (42 км)
Погода в Байе (Венгрия) (47 км)
Погода в Осиек-Чепине (Хорватия) (54 км)
Погода в Паличе (Сербия) (60 км)
Погода в Нови-Саде (Сербия) (73 км)
Погода в Пече (Венгрия) (76 км)
Погода в Градиште (Хорватия) (77 км)
Погода в Сремска-Митровице (Сербия) (81 км)
Погода в Сегеде (Венгрия) (91 км)
Погода в Пакше (Венгрия) (93 км)

Пояснения к столбцам:

Ветер - указаны скорость ветра в м/с - средняя за 10 мин, порывы в срок и между сроками (в фигурных скобках) и направление, откуда дует ветер: С - северный, СВ - северо-восточный, В - восточный, ЮВ - юго-восточный, Ю - южный, ЮЗ - юго-западный, З - западный, СЗ - северо-западный.
Видимость - горизонтальная дальность видимости в метрах или километрах. При видимости от 1 до 10 км при отсутствии осадков обычно наблюдается дымка, при ухудшении видимости до 1 км и менее - туман. В сухую погоду видимость может ухудшаться дымом, пылью или мглою.
Явления - указаны атмосферные явления, наблюдавшиеся в срок или в последний час перед сроком; фигурными скобками обозначены явления, наблюдавшиеся между сроками (за 1-3 часа до срока); квадратными скобками обозначены град или гололедные отложения с указанием их диаметра в мм.
Облачность - указаны через наклонную черту общая и нижняя облачность в баллах и высота нижней границы облаков в метрах; квадратными скобками обозначены формы облаков: Ci - перистые, Cs - перисто-слоистые, Cc - перисто-кучевые, Ac - высококучевые, As - высокослоистые, Sc - слоисто-кучевые, Ns - слоисто-дождевые, Cu - кучевые, Cb - кучево-дождевые. Подробнее классификацию облаков см. в Атласе облаков (PDF).
T - Температура воздуха - температура, измеренная на высоте 2 м над землей.
Td - Температура точки росы - температура, при понижении до которой содержащийся в воздухе водяной пар достигнет насыщения.
f - Относительная влажность воздуха - влажноcть воздуха, измеренная на высоте 2 м над землей.
Te - Эффективная температура - температура, которую ощущает одетый по сезону человек в тени. Характеристика душности погоды. При расчете учитывается влияние влажности воздуха и скорости ветра на теплоощущения человека.
Tes - Эффективная температура на солнце - температура, которую ощущает человек, с поправкой на солнечный нагрев. Характеристика знойности погоды. Зависит от высоты солнца над горизонтом, облачности и скорости ветра. Ночью, в пасмурную погоду, а также при ветре 12 м/с и более поправка равна нулю.
P - Атмосферное давление - приведенное к уровню моря атмосферное давление.
Po - Атмосферное давление - измеренное на уровне метеостанции атмосферное давление.
Tmin - Минимальная температура - минимум температуры воздуха на высоте 2 м над землей.
Tmax - Максимальная температура - максимум температуры воздуха на высоте 2 м над землей.
R - Количество осадков - Количество выпавших осадков за период времени, мм. При наведении курсора мыши на число - период времени, за который выпало указанное количество осадков.
R24 - Количество осадков - Количество выпавших осадков за 24 часа, мм.
S - Снежный покров - Высота снежного покрова, см. При наведении курсора мыши на число - состояние снежного покрова и степень покрытия местности в баллах.